Time,TemperatureF,DewpointF,PressureIn,WindDirection,WindDirectionDegrees,WindSpeedMPH,WindSpeedGustMPH,Humidity,HourlyPrecipIn,Conditions,Clouds,dailyrainin,SolarRadiationWatts/m^2,SoftwareType,DateUTC
2013-03-20 00:00:00,37.9,17.4,29.83,NW,307,0.0,0.0,43,0.00,,---,0.00,0.00,VWS V14.01,2013-03-20 04:00:00,
2013-03-20 00:05:00,37.7,17.8,29.83,WNW,290,0.0,0.0,44,0.00,,---,0.00,0.00,VWS V14.01,2013-03-20 04:05:00,
2013-03-20 00:10:00,37.6,17.1,29.83,West,269,0.0,0.0,43,0.00,,---,0.00,0.00,VWS V14.01,2013-03-20 04:10:00,
2013-03-20 00:15:00,37.4,17.5,29.83,WNW,292,0.0,0.0,44,0.00,,---,0.00,0.00,VWS V14.01,2013-03-20 04:15:00,
2013-03-20 00:20:00,37.3,16.9,29.83,WNW,296,0.0,0.0,43,0.00,,---,0.00,0.00,VWS V14.01,2013-03-20 04:20:00,
2013-03-20 00:25:00,37.2,17.3,29.83,WSW,254,0.0,0.0,44,0.00,,---,0.00,0.00,VWS V14.01,2013-03-20 04:25:00,
2013-03-20 00:30:00,36.9,16.5,29.83,WNW,288,0.0,0.0,43,0.00,,---,0.00,0.00,VWS V14.01,2013-03-20 04:30:00,
2013-03-20 00:35:00,36.8,17.0,29.83,West,267,0.0,0.0,44,0.00,,---,0.00,0.00,VWS V14.01,2013-03-20 04:35:00,
2013-03-20 00:40:00,36.4,17.1,29.83,WSW,244,0.0,0.0,45,0.00,,---,0.00,0.00,VWS V14.01,2013-03-20 04:40:00,
2013-03-20 00:45:00,36.5,17.7,29.84,WNW,286,0.0,0.0,46,0.00,,---,0.00,0.00,VWS V14.01,2013-03-20 04:45:00,
2013-03-20 00:50:00,36.5,17.7,29.84,SW,227,0.0,0.0,46,0.00,,---,0.00,0.00,VWS V14.01,2013-03-20 04:50:00,
2013-03-20 00:55:00,36.6,19.3,29.84,WSW,256,0.0,0.0,49,0.00,,---,0.00,0.00,VWS V14.01,2013-03-20 04:55:00,
2013-03-20 01:00:00,36.4,18.1,29.84,West,277,0.0,0.0,47,0.00,,---,0.00,0.00,VWS V14.01,2013-03-20 05:00:00,
2013-03-20 01:05:00,35.9,17.6,29.84,West,265,0.0,0.0,47,0.00,,---,0.00,0.00,VWS V14.01,2013-03-20 05:05:00,
2013-03-20 01:10:00,35.8,18.5,29.85,WNW,292,0.0,0.0,49,0.00,,---,0.00,0.00,VWS V14.01,2013-03-20 05:10:00,
2013-03-20 01:15:00,35.7,18.0,29.85,West,261,0.0,0.0,48,0.00,,---,0.00,0.00,VWS V14.01,2013-03-20 05:15:00,
2013-03-20 01:20:00,35.6,18.3,29.85,SSW,192,0.0,0.0,49,0.00,,---,0.00,0.00,VWS V14.01,2013-03-20 05:20:00,
2013-03-20 01:25:00,35.5,18.2,29.85,WNW,285,0.0,0.0,49,0.00,,---,0.00,0.00,VWS V14.01,2013-03-20 05:25:00,
2013-03-20 01:30:00,35.3,18.5,29.85,West,267,0.0,0.0,50,0.00,,---,0.00,0.00,VWS V14.01,2013-03-20 05:30:00,
2013-03-20 01:35:00,35.2,18.4,29.85,WSW,253,0.0,0.0,50,0.00,,---,0.00,0.00,VWS V14.01,2013-03-20 05:35:00,
2013-03-20 01:40:00,35.1,18.4,29.85,West,279,0.0,0.0,50,0.00,,---,0.00,0.00,VWS V14.01,2013-03-20 05:40:00,
2013-03-20 01:45:00,35.1,18.8,29.86,SW,236,0.0,0.0,51,0.00,,---,0.00,0.00,VWS V14.01,2013-03-20 05:45:00,
2013-03-20 01:50:00,34.7,18.9,29.86,WSW,247,0.0,0.0,52,0.00,,---,0.00,0.00,VWS V14.01,2013-03-20 05:50:00,
2013-03-20 01:55:00,34.4,18.6,29.86,NNW,337,0.0,0.0,52,0.00,,---,0.00,0.00,VWS V14.01,2013-03-20 05:55:00,
2013-03-20 02:00:00,34.6,19.2,29.86,West,267,0.0,0.0,53,0.00,,---,0.00,0.00,VWS V14.01,2013-03-20 06:00:00,
2013-03-20 02:05:00,34.4,19.0,29.86,SW,226,0.0,0.0,53,0.00,,---,0.00,0.00,VWS V14.01,2013-03-20 06:05:00,
2013-03-20 02:10:00,34.2,18.9,29.86,WSW,248,0.0,0.0,53,0.00,,---,0.00,0.00,VWS V14.01,2013-03-20 06:10:00,
2013-03-20 02:15:00,34.1,19.2,29.86,West,259,0.0,0.0,54,0.00,,---,0.00,0.00,VWS V14.01,2013-03-20 06:15:00,
2013-03-20 02:20:00,34.0,19.1,29.87,West,266,0.0,0.0,54,0.00,,---,0.00,0.00,VWS V14.01,2013-03-20 06:20:00,
2013-03-20 02:25:00,34.0,19.5,29.87,West,262,0.0,0.0,55,0.00,,---,0.00,0.00,VWS V14.01,2013-03-20 06:25:00,
2013-03-20 02:30:00,33.7,18.8,29.87,WNW,300,0.0,0.0,54,0.00,,---,0.00,0.00,VWS V14.01,2013-03-20 06:30:00,
2013-03-20 02:35:00,33.7,18.8,29.87,West,269,0.0,0.0,54,0.00,,---,0.00,0.00,VWS V14.01,2013-03-20 06:35:00,
2013-03-20 02:40:00,33.6,19.2,29.87,West,269,0.0,0.0,55,0.00,,---,0.00,0.00,VWS V14.01,2013-03-20 06:40:00,
2013-03-20 02:45:00,33.5,19.1,29.88,WSW,248,0.0,0.0,55,0.00,,---,0.00,0.00,VWS V14.01,2013-03-20 06:45:00,
2013-03-20 02:50:00,33.6,18.7,29.88,WSW,255,0.0,0.0,54,0.00,,---,0.00,0.00,VWS V14.01,2013-03-20 06:50:00,
2013-03-20 02:55:00,33.4,19.0,29.88,WSW,244,0.0,0.0,55,0.00,,---,0.00,0.00,VWS V14.01,2013-03-20 06:55:00,
2013-03-20 03:00:00,33.3,18.9,29.88,WSW,258,0.0,0.0,55,0.00,,---,0.00,0.00,VWS V14.01,2013-03-20 07:00:00,
2013-03-20 03:05:00,33.3,18.9,29.88,South,184,0.0,0.0,55,0.00,,---,0.00,0.00,VWS V14.01,2013-03-20 07:05:00,
2013-03-20 03:10:00,33.2,18.4,29.88,WNW,292,0.0,0.0,54,0.00,,---,0.00,0.00,VWS V14.01,2013-03-20 07:10:00,
2013-03-20 03:15:00,33.1,18.7,29.88,WNW,286,0.0,0.0,55,0.00,,---,0.00,0.00,VWS V14.01,2013-03-20 07:15:00,
2013-03-20 03:20:00,33.1,18.7,29.88,WSW,252,0.0,0.0,55,0.00,,---,0.00,0.00,VWS V14.01,2013-03-20 07:20:00,
2013-03-20 03:25:00,32.9,18.5,29.88,WNW,303,0.0,0.0,55,0.00,,---,0.00,0.00,VWS V14.01,2013-03-20 07:25:00,
2013-03-20 03:30:00,32.8,18.8,29.88,WNW,288,0.0,0.0,56,0.00,,---,0.00,0.00,VWS V14.01,2013-03-20 07:30:00,
2013-03-20 03:35:00,32.7,18.8,29.88,West,277,0.0,0.0,56,0.00,,---,0.00,0.00,VWS V14.01,2013-03-20 07:35:00,
2013-03-20 03:40:00,32.6,18.7,29.89,NNW,330,0.0,0.0,56,0.00,,---,0.00,0.00,VWS V14.01,2013-03-20 07:40:00,
2013-03-20 03:45:00,32.7,18.8,29.89,NNW,327,0.0,0.0,56,0.00,,---,0.00,0.00,VWS V14.01,2013-03-20 07:45:00,
2013-03-20 03:50:00,32.7,18.8,29.89,SW,229,0.0,0.0,56,0.00,,---,0.00,0.00,VWS V14.01,2013-03-20 07:50:00,
2013-03-20 03:55:00,32.7,18.8,29.89,WSW,257,0.0,0.0,56,0.00,,---,0.00,0.00,VWS V14.01,2013-03-20 07:55:00,
2013-03-20 04:00:00,32.6,18.7,29.89,West,267,0.0,0.0,56,0.00,,---,0.00,0.00,VWS V14.01,2013-03-20 08:00:00,
2013-03-20 04:05:00,32.5,19.0,29.88,WNW,292,0.0,0.0,57,0.00,,---,0.00,0.00,VWS V14.01,2013-03-20 08:05:00,
2013-03-20 04:10:00,32.4,18.9,29.89,WSW,241,0.0,0.0,57,0.00,,---,0.00,0.00,VWS V14.01,2013-03-20 08:10:00,
2013-03-20 04:15:00,32.3,19.2,29.89,WNW,302,0.0,0.0,58,0.00,,---,0.00,0.00,VWS V14.01,2013-03-20 08:15:00,
2013-03-20 04:20:00,32.4,19.7,29.89,WSW,242,0.0,0.0,59,0.00,,---,0.00,0.00,VWS V14.01,2013-03-20 08:20:00,
2013-03-20 04:25:00,32.3,19.6,29.89,WSW,242,0.0,0.0,59,0.00,,---,0.00,0.00,VWS V14.01,2013-03-20 08:25:00,
2013-03-20 04:30:00,32.0,19.7,29.88,West,260,0.0,0.0,60,0.00,,---,0.00,0.00,VWS V14.01,2013-03-20 08:30:00,
2013-03-20 04:35:00,32.0,19.3,29.89,WNW,290,0.0,0.0,59,0.00,,---,0.00,0.00,VWS V14.01,2013-03-20 08:35:00,
2013-03-20 04:40:00,31.9,19.2,29.89,WSW,241,0.0,0.0,59,0.00,,---,0.00,0.00,VWS V14.01,2013-03-20 08:40:00,
2013-03-20 04:45:00,31.8,18.7,29.89,WSW,253,0.0,0.0,58,0.00,,---,0.00,0.00,VWS V14.01,2013-03-20 08:45:00,
2013-03-20 04:50:00,31.9,18.8,29.89,WNW,289,0.0,0.0,58,0.00,,---,0.00,0.00,VWS V14.01,2013-03-20 08:50:00,
2013-03-20 04:55:00,31.7,19.0,29.89,West,261,0.0,0.0,59,0.00,,---,0.00,0.00,VWS V14.01,2013-03-20 08:55:00,
2013-03-20 05:00:00,31.7,18.6,29.88,West,269,0.0,0.0,58,0.00,,---,0.00,0.00,VWS V14.01,2013-03-20 09:00:00,
2013-03-20 05:05:00,31.7,19.0,29.89,WSW,249,0.0,0.0,59,0.00,,---,0.00,0.00,VWS V14.01,2013-03-20 09:05:00,
2013-03-20 05:10:00,31.7,18.6,29.89,NW,317,0.0,0.0,58,0.00,,---,0.00,0.00,VWS V14.01,2013-03-20 09:10:00,
2013-03-20 05:15:00,31.7,18.6,29.89,WSW,256,0.0,0.0,58,0.00,,---,0.00,0.00,VWS V14.01,2013-03-20 09:15:00,
2013-03-20 05:20:00,31.7,18.6,29.89,WSW,252,0.0,0.0,58,0.00,,---,0.00,0.00,VWS V14.01,2013-03-20 09:20:00,
2013-03-20 05:25:00,31.7,18.2,29.89,WSW,240,0.0,0.0,57,0.00,,---,0.00,0.00,VWS V14.01,2013-03-20 09:25:00,
2013-03-20 05:30:00,31.7,18.6,29.89,WNW,303,0.0,0.0,58,0.00,,---,0.00,0.00,VWS V14.01,2013-03-20 09:30:00,
2013-03-20 05:35:00,31.7,18.2,29.89,West,273,0.0,0.0,57,0.00,,---,0.00,0.00,VWS V14.01,2013-03-20 09:35:00,
2013-03-20 05:40:00,31.7,18.6,29.89,SSW,197,0.0,0.0,58,0.00,,---,0.00,0.00,VWS V14.01,2013-03-20 09:40:00,
2013-03-20 05:45:00,31.5,18.4,29.89,West,267,0.0,0.0,58,0.00,,---,0.00,0.00,VWS V14.01,2013-03-20 09:45:00,
2013-03-20 05:50:00,31.2,18.2,29.89,WSW,254,0.0,0.0,58,0.00,,---,0.00,0.00,VWS V14.01,2013-03-20 09:50:00,
2013-03-20 05:55:00,31.2,18.5,29.89,West,259,0.0,0.0,59,0.00,,---,0.00,0.00,VWS V14.01,2013-03-20 09:55:00,
2013-03-20 06:00:00,31.1,18.5,29.90,WSW,246,0.0,0.0,59,0.00,,---,0.00,0.00,VWS V14.01,2013-03-20 10:00:00,
2013-03-20 06:05:00,31.1,18.9,29.90,West,259,0.0,0.0,60,0.00,,---,0.00,0.00,VWS V14.01,2013-03-20 10:05:00,
2013-03-20 06:10:00,31.1,18.9,29.90,West,278,0.0,0.0,60,0.00,,---,0.00,0.00,VWS V14.01,2013-03-20 10:10:00,
2013-03-20 06:15:00,31.4,19.1,29.90,West,269,0.0,0.0,60,0.00,,---,0.00,0.00,VWS V14.01,2013-03-20 10:15:00,
2013-03-20 06:20:00,31.3,18.6,29.90,West,273,0.0,0.0,59,0.00,,---,0.00,0.00,VWS V14.01,2013-03-20 10:20:00,
2013-03-20 06:25:00,31.4,18.7,29.90,WSW,254,0.0,0.0,59,0.00,,---,0.00,0.00,VWS V14.01,2013-03-20 10:25:00,
2013-03-20 06:30:00,31.5,18.8,29.90,West,267,0.0,0.0,59,0.00,,---,0.00,0.00,VWS V14.01,2013-03-20 10:30:00,
2013-03-20 06:35:00,31.4,18.7,29.90,West,270,0.0,0.0,59,0.00,,---,0.00,0.00,VWS V14.01,2013-03-20 10:35:00,
2013-03-20 06:40:00,31.5,18.8,29.90,West,268,0.0,0.0,59,0.00,,---,0.00,0.00,VWS V14.01,2013-03-20 10:40:00,
2013-03-20 06:45:00,31.5,18.8,29.90,WSW,257,0.0,0.0,59,0.00,,---,0.00,0.00,VWS V14.01,2013-03-20 10:45:00,
2013-03-20 06:50:00,31.5,18.8,29.90,WSW,239,0.0,0.0,59,0.00,,---,0.00,0.00,VWS V14.01,2013-03-20 10:50:00,
2013-03-20 06:55:00,31.4,18.7,29.90,SSW,201,0.0,0.0,59,0.00,,---,0.00,0.00,VWS V14.01,2013-03-20 10:55:00,
2013-03-20 07:00:00,31.3,18.6,29.90,West,263,0.0,0.0,59,0.00,,---,0.00,0.00,VWS V14.01,2013-03-20 11:00:00,
2013-03-20 07:05:00,31.4,18.7,29.90,West,265,0.0,0.0,59,0.00,,---,0.00,7.00,VWS V14.01,2013-03-20 11:05:00,
2013-03-20 07:10:00,31.5,18.8,29.90,WSW,258,0.0,0.0,59,0.00,,---,0.00,11.00,VWS V14.01,2013-03-20 11:10:00,
2013-03-20 07:15:00,31.5,18.4,29.90,West,280,0.0,0.0,58,0.00,,---,0.00,14.00,VWS V14.01,2013-03-20 11:15:00,
2013-03-20 07:20:00,31.7,18.6,29.90,West,267,0.0,0.0,58,0.00,,---,0.00,18.00,VWS V14.01,2013-03-20 11:20:00,
2013-03-20 07:25:00,32.0,18.5,29.90,WSW,251,0.0,0.0,57,0.00,,---,0.00,21.00,VWS V14.01,2013-03-20 11:25:00,
2013-03-20 07:30:00,32.5,19.0,29.90,WSW,250,0.0,0.0,57,0.00,,---,0.00,25.00,VWS V14.01,2013-03-20 11:30:00,
2013-03-20 07:35:00,32.8,18.8,29.90,SSW,199,0.0,0.0,56,0.00,,---,0.00,32.00,VWS V14.01,2013-03-20 11:35:00,
2013-03-20 07:40:00,33.3,18.0,29.90,WNW,284,0.0,0.0,53,0.00,,---,0.00,49.00,VWS V14.01,2013-03-20 11:40:00,
2013-03-20 07:45:00,33.6,18.3,29.90,West,264,0.0,0.0,53,0.00,,---,0.00,69.00,VWS V14.01,2013-03-20 11:45:00,
2013-03-20 07:50:00,33.8,18.0,29.90,WSW,252,0.0,0.0,52,0.00,,---,0.00,91.00,VWS V14.01,2013-03-20 11:50:00,
2013-03-20 07:55:00,33.7,18.4,29.90,WSW,257,0.0,0.0,53,0.00,,---,0.00,111.00,VWS V14.01,2013-03-20 11:55:00,
2013-03-20 08:00:00,34.4,18.2,29.90,West,269,0.0,0.0,51,0.00,,---,0.00,128.00,VWS V14.01,2013-03-20 12:00:00,
2013-03-20 08:05:00,34.4,17.7,29.90,WNW,298,0.0,0.0,50,0.00,,---,0.00,148.00,VWS V14.01,2013-03-20 12:05:00,
2013-03-20 08:10:00,34.8,18.1,29.90,West,273,0.0,0.0,50,0.00,,---,0.00,171.00,VWS V14.01,2013-03-20 12:10:00,
2013-03-20 08:15:00,34.9,18.6,29.90,WNW,284,0.0,0.0,51,0.00,,---,0.00,190.00,VWS V14.01,2013-03-20 12:15:00,
2013-03-20 08:20:00,35.5,17.8,29.90,West,265,0.0,0.0,48,0.00,,---,0.00,209.00,VWS V14.01,2013-03-20 12:20:00,
2013-03-20 08:25:00,35.1,17.9,29.90,West,263,0.0,0.0,49,0.00,,---,0.00,229.00,VWS V14.01,2013-03-20 12:25:00,
2013-03-20 08:30:00,35.6,18.8,29.90,WSW,240,0.0,0.0,50,0.00,,---,0.00,246.00,VWS V14.01,2013-03-20 12:30:00,
2013-03-20 08:35:00,36.1,18.3,29.90,West,260,0.0,0.0,48,0.00,,---,0.00,262.00,VWS V14.01,2013-03-20 12:35:00,
2013-03-20 08:40:00,36.2,18.4,29.89,West,269,0.0,0.0,48,0.00,,---,0.00,278.00,VWS V14.01,2013-03-20 12:40:00,
2013-03-20 08:45:00,36.4,18.1,29.89,WNW,288,0.0,0.0,47,0.00,,---,0.00,295.00,VWS V14.01,2013-03-20 12:45:00,
2013-03-20 08:50:00,36.6,18.8,29.89,WNW,302,0.0,0.0,48,0.00,,---,0.00,311.00,VWS V14.01,2013-03-20 12:50:00,
2013-03-20 08:55:00,37.1,18.8,29.89,WSW,248,0.0,0.0,47,0.00,,---,0.00,332.00,VWS V14.01,2013-03-20 12:55:00,
2013-03-20 09:00:00,37.3,18.9,29.89,West,268,0.0,0.0,47,0.00,,---,0.00,346.00,VWS V14.01,2013-03-20 13:00:00,
2013-03-20 09:05:00,36.9,18.6,29.89,West,263,0.0,0.0,47,0.00,,---,0.00,360.00,VWS V14.01,2013-03-20 13:05:00,
2013-03-20 09:10:00,37.5,18.6,29.89,West,259,0.0,0.0,46,0.00,,---,0.00,381.00,VWS V14.01,2013-03-20 13:10:00,
2013-03-20 09:15:00,38.2,19.3,29.89,NW,306,0.0,0.0,46,0.00,,---,0.00,420.00,VWS V14.01,2013-03-20 13:15:00,
2013-03-20 09:20:00,38.8,19.3,29.89,North,350,0.0,0.0,45,0.00,,---,0.00,436.00,VWS V14.01,2013-03-20 13:20:00,
2013-03-20 09:25:00,38.7,19.7,29.89,WNW,294,0.0,0.0,46,0.00,,---,0.00,466.00,VWS V14.01,2013-03-20 13:25:00,
2013-03-20 09:30:00,38.6,19.1,29.89,WSW,242,0.0,0.0,45,0.00,,---,0.00,490.00,VWS V14.01,2013-03-20 13:30:00,
2013-03-20 09:35:00,38.0,18.0,29.89,WSW,246,0.0,0.0,44,0.00,,---,0.00,497.00,VWS V14.01,2013-03-20 13:35:00,
2013-03-20 09:40:00,38.1,18.6,29.89,WNW,291,0.0,0.0,45,0.00,,---,0.00,519.00,VWS V14.01,2013-03-20 13:40:00,
2013-03-20 09:45:00,38.5,19.0,29.89,SW,234,0.0,0.0,45,0.00,,---,0.00,552.00,VWS V14.01,2013-03-20 13:45:00,
2013-03-20 09:50:00,39.5,18.9,29.89,West,259,0.0,0.0,43,0.00,,---,0.00,566.00,VWS V14.01,2013-03-20 13:50:00,
2013-03-20 09:55:00,39.4,19.3,29.89,ENE,59,0.0,0.0,44,0.00,,---,0.00,540.00,VWS V14.01,2013-03-20 13:55:00,
2013-03-20 10:00:00,39.5,18.3,29.89,West,278,0.0,0.0,42,0.00,,---,0.00,577.00,VWS V14.01,2013-03-20 14:00:00,
2013-03-20 10:05:00,39.3,18.7,29.89,WNW,286,0.0,0.0,43,0.00,,---,0.00,591.00,VWS V14.01,2013-03-20 14:05:00,
2013-03-20 10:10:00,40.0,18.8,29.89,West,271,0.0,0.0,42,0.00,,---,0.00,629.00,VWS V14.01,2013-03-20 14:10:00,
2013-03-20 10:15:00,39.7,18.5,29.89,WNW,301,0.0,0.0,42,0.00,,---,0.00,642.00,VWS V14.01,2013-03-20 14:15:00,
2013-03-20 10:20:00,40.1,19.4,29.89,SSW,208,0.0,0.0,43,0.00,,---,0.00,631.00,VWS V14.01,2013-03-20 14:20:00,
2013-03-20 10:25:00,40.2,18.4,29.89,WSW,255,0.0,0.0,41,0.00,,---,0.00,647.00,VWS V14.01,2013-03-20 14:25:00,
2013-03-20 10:30:00,40.8,19.5,29.89,WSW,253,0.0,0.0,42,0.00,,---,0.00,647.00,VWS V14.01,2013-03-20 14:30:00,
2013-03-20 10:35:00,40.6,18.2,29.89,West,276,0.0,0.0,40,0.00,,---,0.00,652.00,VWS V14.01,2013-03-20 14:35:00,
2013-03-20 10:40:00,40.7,18.3,29.89,West,271,0.0,0.0,40,0.00,,---,0.00,659.00,VWS V14.01,2013-03-20 14:40:00,
2013-03-20 10:45:00,41.3,19.4,29.89,WSW,241,0.0,0.0,41,0.00,,---,0.00,691.00,VWS V14.01,2013-03-20 14:45:00,
2013-03-20 10:50:00,41.3,18.8,29.89,WNW,294,0.0,0.0,40,0.00,,---,0.00,712.00,VWS V14.01,2013-03-20 14:50:00,
2013-03-20 10:55:00,40.9,18.5,29.89,SSW,193,0.0,0.0,40,0.00,,---,0.00,719.00,VWS V14.01,2013-03-20 14:55:00,
2013-03-20 11:00:00,41.3,18.8,29.89,West,269,0.0,0.0,40,0.00,,---,0.00,729.00,VWS V14.01,2013-03-20 15:00:00,
2013-03-20 11:05:00,40.8,18.4,29.89,West,263,0.0,0.0,40,0.00,,---,0.00,737.00,VWS V14.01,2013-03-20 15:05:00,
2013-03-20 11:10:00,42.0,19.5,29.89,WNW,300,0.0,0.0,40,0.00,,---,0.00,747.00,VWS V14.01,2013-03-20 15:10:00,
2013-03-20 11:15:00,41.8,19.8,29.89,SSW,209,0.0,0.0,41,0.00,,---,0.00,749.00,VWS V14.01,2013-03-20 15:15:00,
2013-03-20 11:20:00,42.0,18.9,29.89,NW,309,0.0,0.0,39,0.00,,---,0.00,754.00,VWS V14.01,2013-03-20 15:20:00,
2013-03-20 11:25:00,42.6,20.0,29.89,West,271,0.0,0.0,40,0.00,,---,0.00,744.00,VWS V14.01,2013-03-20 15:25:00,
2013-03-20 11:30:00,42.4,18.6,29.89,West,275,0.0,0.0,38,0.00,,---,0.00,768.00,VWS V14.01,2013-03-20 15:30:00,
2013-03-20 11:35:00,41.4,18.3,29.89,West,279,0.0,0.0,39,0.00,,---,0.00,805.00,VWS V14.01,2013-03-20 15:35:00,
2013-03-20 11:40:00,41.3,18.8,29.88,WNW,283,0.0,0.0,40,0.00,,---,0.00,784.00,VWS V14.01,2013-03-20 15:40:00,
2013-03-20 11:45:00,42.3,20.3,29.88,WNW,292,0.0,0.0,41,0.00,,---,0.00,786.00,VWS V14.01,2013-03-20 15:45:00,
2013-03-20 11:50:00,42.9,19.1,29.88,South,191,0.0,0.0,38,0.00,,---,0.00,789.00,VWS V14.01,2013-03-20 15:50:00,
2013-03-20 11:55:00,42.8,19.6,29.88,SW,234,0.0,0.0,39,0.00,,---,0.00,803.00,VWS V14.01,2013-03-20 15:55:00,
2013-03-20 12:00:00,43.2,18.7,29.88,West,281,0.0,0.0,37,0.00,,---,0.00,802.00,VWS V14.01,2013-03-20 16:00:00,
2013-03-20 12:05:00,43.4,18.9,29.88,NW,313,0.0,0.0,37,0.00,,---,0.00,803.00,VWS V14.01,2013-03-20 16:05:00,
2013-03-20 12:10:00,43.4,20.1,29.87,WSW,254,0.0,0.0,39,0.00,,---,0.00,819.00,VWS V14.01,2013-03-20 16:10:00,
2013-03-20 12:15:00,44.9,20.9,29.87,WSW,248,0.0,0.0,38,0.00,,---,0.00,816.00,VWS V14.01,2013-03-20 16:15:00,
2013-03-20 12:20:00,44.4,19.1,29.88,NW,305,0.0,0.0,36,0.00,,---,0.00,821.00,VWS V14.01,2013-03-20 16:20:00,
2013-03-20 12:25:00,43.7,19.1,29.87,WSW,254,0.0,0.0,37,0.00,,---,0.00,831.00,VWS V14.01,2013-03-20 16:25:00,
2013-03-20 12:30:00,43.6,19.1,29.86,WSW,252,0.0,0.0,37,0.00,,---,0.00,833.00,VWS V14.01,2013-03-20 16:30:00,
2013-03-20 12:35:00,43.6,19.1,29.86,West,260,0.0,0.0,37,0.00,,---,0.00,837.00,VWS V14.01,2013-03-20 16:35:00,
2013-03-20 12:40:00,44.5,19.9,29.86,West,263,0.0,0.0,37,0.00,,---,0.00,838.00,VWS V14.01,2013-03-20 16:40:00,
2013-03-20 12:45:00,44.4,19.1,29.86,West,274,0.0,0.0,36,0.00,,---,0.00,842.00,VWS V14.01,2013-03-20 16:45:00,
2013-03-20 12:50:00,45.5,20.1,29.86,WNW,294,0.0,0.0,36,0.00,,---,0.00,846.00,VWS V14.01,2013-03-20 16:50:00,
2013-03-20 12:55:00,45.0,19.0,29.86,SW,226,0.0,0.0,35,0.00,,---,0.00,849.00,VWS V14.01,2013-03-20 16:55:00,
2013-03-20 13:00:00,44.7,20.0,29.86,SW,219,0.0,0.0,37,0.00,,---,0.00,838.00,VWS V14.01,2013-03-20 17:00:00,
2013-03-20 13:05:00,44.8,19.5,29.85,WNW,290,0.0,0.0,36,0.00,,---,0.00,847.00,VWS V14.01,2013-03-20 17:05:00,
2013-03-20 13:10:00,45.4,19.4,29.85,WNW,301,0.0,0.0,35,0.00,,---,0.00,846.00,VWS V14.01,2013-03-20 17:10:00,
2013-03-20 13:15:00,45.7,19.6,29.85,WSW,252,0.0,0.0,35,0.00,,---,0.00,856.00,VWS V14.01,2013-03-20 17:15:00,
2013-03-20 13:20:00,46.1,20.0,29.85,West,265,0.0,0.0,35,0.00,,---,0.00,846.00,VWS V14.01,2013-03-20 17:20:00,
2013-03-20 13:25:00,46.0,19.9,29.84,WSW,243,0.0,0.0,35,0.00,,---,0.00,851.00,VWS V14.01,2013-03-20 17:25:00,
2013-03-20 13:30:00,46.5,20.3,29.84,WSW,244,0.0,0.0,35,0.00,,---,0.00,849.00,VWS V14.01,2013-03-20 17:30:00,
2013-03-20 13:35:00,46.0,20.6,29.84,SSE,167,0.0,0.0,36,0.00,,---,0.00,860.00,VWS V14.01,2013-03-20 17:35:00,
2013-03-20 13:40:00,46.2,19.4,29.84,West,268,0.0,0.0,34,0.00,,---,0.00,121.00,VWS V14.01,2013-03-20 17:40:00,
2013-03-20 13:45:00,46.0,21.2,29.84,NNE,24,0.0,0.0,37,0.00,,---,0.00,854.00,VWS V14.01,2013-03-20 17:45:00,
2013-03-20 13:50:00,46.4,20.2,29.83,West,260,0.0,0.0,35,0.00,,---,0.00,840.00,VWS V14.01,2013-03-20 17:50:00,
2013-03-20 13:55:00,46.2,19.4,29.83,WNW,283,0.0,0.0,34,0.00,,---,0.00,860.00,VWS V14.01,2013-03-20 17:55:00,
2013-03-20 14:00:00,46.5,20.3,29.83,West,265,0.0,0.0,35,0.00,,---,0.00,863.00,VWS V14.01,2013-03-20 18:00:00,
2013-03-20 14:05:00,46.5,18.2,29.82,WSW,258,0.0,0.0,32,0.00,,---,0.00,831.00,VWS V14.01,2013-03-20 18:05:00,
2013-03-20 14:10:00,46.8,19.9,29.82,SW,215,0.0,0.0,34,0.00,,---,0.00,860.00,VWS V14.01,2013-03-20 18:10:00,
2013-03-20 14:15:00,46.8,19.2,29.82,SW,236,0.0,0.0,33,0.00,,---,0.00,847.00,VWS V14.01,2013-03-20 18:15:00,
2013-03-20 14:20:00,46.4,18.2,29.82,West,270,0.0,0.0,32,0.00,,---,0.00,824.00,VWS V14.01,2013-03-20 18:20:00,
2013-03-20 14:25:00,46.2,18.0,29.82,WNW,284,0.0,0.0,32,0.00,,---,0.00,814.00,VWS V14.01,2013-03-20 18:25:00,
2013-03-20 14:30:00,46.2,17.2,29.81,West,271,0.0,0.0,31,0.00,,---,0.00,805.00,VWS V14.01,2013-03-20 18:30:00,
2013-03-20 14:35:00,46.7,19.1,29.81,West,273,0.0,0.0,33,0.00,,---,0.00,816.00,VWS V14.01,2013-03-20 18:35:00,
2013-03-20 14:40:00,47.0,18.0,29.81,WNW,284,0.0,0.0,31,0.00,,---,0.00,795.00,VWS V14.01,2013-03-20 18:40:00,
2013-03-20 14:45:00,46.2,18.0,29.81,WNW,294,0.0,0.0,32,0.00,,---,0.00,788.00,VWS V14.01,2013-03-20 18:45:00,
2013-03-20 14:50:00,47.4,18.3,29.81,West,277,0.0,0.0,31,0.00,,---,0.00,805.00,VWS V14.01,2013-03-20 18:50:00,
2013-03-20 14:55:00,46.8,17.8,29.81,WSW,250,0.0,0.0,31,0.00,,---,0.00,796.00,VWS V14.01,2013-03-20 18:55:00,
2013-03-20 15:00:00,46.6,18.3,29.81,South,184,0.0,0.0,32,0.00,,---,0.00,793.00,VWS V14.01,2013-03-20 19:00:00,
2013-03-20 15:05:00,47.3,18.2,29.81,WSW,241,0.0,0.0,31,0.00,,---,0.00,795.00,VWS V14.01,2013-03-20 19:05:00,
2013-03-20 15:10:00,46.3,18.8,29.81,SW,225,0.0,0.0,33,0.00,,---,0.00,803.00,VWS V14.01,2013-03-20 19:10:00,
2013-03-20 15:15:00,46.9,19.3,29.81,WSW,252,0.0,0.0,33,0.00,,---,0.00,536.00,VWS V14.01,2013-03-20 19:15:00,
2013-03-20 15:20:00,46.7,18.4,29.80,SW,234,0.0,0.0,32,0.00,,---,0.00,251.00,VWS V14.01,2013-03-20 19:20:00,
2013-03-20 15:25:00,46.0,18.5,29.80,WSW,250,0.0,0.0,33,0.00,,---,0.00,316.00,VWS V14.01,2013-03-20 19:25:00,
2013-03-20 15:30:00,45.6,18.2,29.80,WSW,237,0.0,0.0,33,0.00,,---,0.00,334.00,VWS V14.01,2013-03-20 19:30:00,
2013-03-20 15:35:00,46.6,18.3,29.80,West,262,0.0,0.0,32,0.00,,---,0.00,214.00,VWS V14.01,2013-03-20 19:35:00,
2013-03-20 15:40:00,45.8,17.6,29.80,NW,322,0.0,0.0,32,0.00,,---,0.00,218.00,VWS V14.01,2013-03-20 19:40:00,
2013-03-20 15:45:00,45.7,18.3,29.80,WNW,290,0.0,0.0,33,0.00,,---,0.00,251.00,VWS V14.01,2013-03-20 19:45:00,
2013-03-20 15:50:00,46.0,17.8,29.80,SW,234,0.0,0.0,32,0.00,,---,0.00,185.00,VWS V14.01,2013-03-20 19:50:00,
2013-03-20 15:55:00,45.9,17.7,29.80,WNW,288,0.0,0.0,32,0.00,,---,0.00,204.00,VWS V14.01,2013-03-20 19:55:00,
2013-03-20 16:00:00,45.8,18.4,29.80,WNW,290,0.0,0.0,33,0.00,,---,0.00,202.00,VWS V14.01,2013-03-20 20:00:00,
2013-03-20 16:05:00,45.3,17.9,29.79,North,355,0.0,0.0,33,0.00,,---,0.00,290.00,VWS V14.01,2013-03-20 20:05:00,
2013-03-20 16:09:00,45.8,18.4,29.79,West,275,0.0,0.0,33,0.00,,---,0.00,167.00,VWS V14.01,2013-03-20 20:09:00,
2013-03-20 16:15:00,46.4,18.2,29.79,WNW,282,0.0,0.0,32,0.00,,---,0.00,624.00,VWS V14.01,2013-03-20 20:15:00,
2013-03-20 16:20:00,47.3,18.2,29.79,NW,319,0.0,0.0,31,0.00,,---,0.00,454.00,VWS V14.01,2013-03-20 20:20:00,
2013-03-20 16:24:00,47.1,18.0,29.79,NW,308,0.0,0.0,31,0.00,,---,0.00,223.00,VWS V14.01,2013-03-20 20:24:00,
2013-03-20 16:29:00,46.7,16.9,29.79,WSW,244,0.0,0.0,30,0.00,,---,0.00,371.00,VWS V14.01,2013-03-20 20:29:00,
2013-03-20 16:34:00,46.2,17.2,29.79,West,279,0.0,0.0,31,0.00,,---,0.00,174.00,VWS V14.01,2013-03-20 20:34:00,
2013-03-20 16:39:00,45.8,16.9,29.79,West,262,0.0,0.0,31,0.00,,---,0.00,144.00,VWS V14.01,2013-03-20 20:39:00,
2013-03-20 16:44:00,45.7,17.5,29.79,WNW,284,0.0,0.0,32,0.00,,---,0.00,199.00,VWS V14.01,2013-03-20 20:44:00,
2013-03-20 16:49:00,45.0,17.6,29.79,North,355,0.0,0.0,33,0.00,,---,0.00,204.00,VWS V14.01,2013-03-20 20:49:00,
2013-03-20 16:54:00,46.0,18.5,29.79,NNW,333,0.0,0.0,33,0.00,,---,0.00,554.00,VWS V14.01,2013-03-20 20:54:00,
2013-03-20 16:59:00,45.4,18.0,29.79,WNW,285,0.0,0.0,33,0.00,,---,0.00,146.00,VWS V14.01,2013-03-20 20:59:00,
2013-03-20 17:04:00,45.5,17.4,29.79,WNW,284,0.0,0.0,32,0.00,,---,0.00,134.00,VWS V14.01,2013-03-20 21:04:00,
2013-03-20 17:09:00,45.6,18.2,29.79,WSW,244,0.0,0.0,33,0.00,,---,0.00,123.00,VWS V14.01,2013-03-20 21:09:00,
2013-03-20 17:14:00,45.5,18.1,29.78,West,273,0.0,0.0,33,0.00,,---,0.00,415.00,VWS V14.01,2013-03-20 21:14:00,
2013-03-20 17:19:00,45.7,19.0,29.78,WNW,301,0.0,0.0,34,0.00,,---,0.00,193.00,VWS V14.01,2013-03-20 21:19:00,
2013-03-20 17:24:00,45.7,18.3,29.79,WNW,283,0.0,0.0,33,0.00,,---,0.00,169.00,VWS V14.01,2013-03-20 21:24:00,
2013-03-20 17:29:00,45.8,18.4,29.79,West,277,0.0,0.0,33,0.00,,---,0.00,411.00,VWS V14.01,2013-03-20 21:29:00,
2013-03-20 17:34:00,45.9,17.7,29.78,NW,304,0.0,0.0,32,0.00,,---,0.00,318.00,VWS V14.01,2013-03-20 21:34:00,
2013-03-20 17:39:00,46.3,19.5,29.78,NW,305,0.0,0.0,34,0.00,,---,0.00,292.00,VWS V14.01,2013-03-20 21:39:00,
2013-03-20 17:44:00,46.5,19.0,29.78,West,277,0.0,0.0,33,0.00,,---,0.00,176.00,VWS V14.01,2013-03-20 21:44:00,
2013-03-20 17:49:00,45.9,16.2,29.79,West,277,0.0,0.0,30,0.00,,---,0.00,60.00,VWS V14.01,2013-03-20 21:49:00,
2013-03-20 17:54:00,45.4,15.8,29.78,SW,225,0.0,0.0,30,0.00,,---,0.00,58.00,VWS V14.01,2013-03-20 21:54:00,
2013-03-20 17:59:00,45.1,15.5,29.79,SSW,209,0.0,0.0,30,0.00,,---,0.00,72.00,VWS V14.01,2013-03-20 21:59:00,
2013-03-20 18:04:00,45.4,16.5,29.79,SSW,203,0.0,0.0,31,0.00,,---,0.00,63.00,VWS V14.01,2013-03-20 22:04:00,
2013-03-20 18:09:00,45.1,16.3,29.79,SW,224,0.0,0.0,31,0.00,,---,0.00,72.00,VWS V14.01,2013-03-20 22:09:00,
2013-03-20 18:14:00,45.1,16.3,29.79,WSW,240,0.0,0.0,31,0.00,,---,0.00,90.00,VWS V14.01,2013-03-20 22:14:00,
2013-03-20 18:19:00,45.5,16.6,29.78,West,277,0.0,0.0,31,0.00,,---,0.00,105.00,VWS V14.01,2013-03-20 22:19:00,
2013-03-20 18:24:00,45.5,15.9,29.79,West,274,0.0,0.0,30,0.00,,---,0.00,49.00,VWS V14.01,2013-03-20 22:24:00,
2013-03-20 18:29:00,45.3,16.5,29.79,SW,226,0.0,0.0,31,0.00,,---,0.00,47.00,VWS V14.01,2013-03-20 22:29:00,
2013-03-20 18:34:00,45.2,17.1,29.79,SSW,208,0.0,0.0,32,0.00,,---,0.00,46.00,VWS V14.01,2013-03-20 22:34:00,
2013-03-20 18:39:00,45.0,17.6,29.79,West,269,0.0,0.0,33,0.00,,---,0.00,42.00,VWS V14.01,2013-03-20 22:39:00,
2013-03-20 18:44:00,44.9,16.8,29.79,West,259,0.0,0.0,32,0.00,,---,0.00,28.00,VWS V14.01,2013-03-20 22:44:00,
2013-03-20 18:49:00,44.8,16.8,29.79,West,267,0.0,0.0,32,0.00,,---,0.00,25.00,VWS V14.01,2013-03-20 22:49:00,
2013-03-20 18:54:00,44.7,16.7,29.79,WNW,282,0.0,0.0,32,0.00,,---,0.00,16.00,VWS V14.01,2013-03-20 22:54:00,
2013-03-20 18:59:00,44.5,17.2,29.79,NW,318,0.0,0.0,33,0.00,,---,0.00,12.00,VWS V14.01,2013-03-20 22:59:00,
2013-03-20 19:04:00,44.0,17.5,29.79,SW,234,0.0,0.0,34,0.00,,---,0.00,9.00,VWS V14.01,2013-03-20 23:04:00,
2013-03-20 19:09:00,43.9,17.4,29.79,West,275,0.0,0.0,34,0.00,,---,0.00,5.00,VWS V14.01,2013-03-20 23:09:00,
2013-03-20 19:14:00,44.0,17.5,29.79,WNW,300,0.0,0.0,34,0.00,,---,0.00,0.00,VWS V14.01,2013-03-20 23:14:00,
2013-03-20 19:19:00,44.0,18.8,29.80,West,271,0.0,0.0,36,0.00,,---,0.00,0.00,VWS V14.01,2013-03-20 23:19:00,
2013-03-20 19:24:00,44.0,18.8,29.79,West,277,0.0,0.0,36,0.00,,---,0.00,0.00,VWS V14.01,2013-03-20 23:24:00,
2013-03-20 19:29:00,44.0,18.1,29.80,West,263,0.0,0.0,35,0.00,,---,0.00,0.00,VWS V14.01,2013-03-20 23:29:00,
2013-03-20 19:34:00,44.1,18.2,29.79,WSW,248,0.0,0.0,35,0.00,,---,0.00,0.00,VWS V14.01,2013-03-20 23:34:00,
2013-03-20 19:39:00,43.8,17.3,29.79,WNW,288,0.0,0.0,34,0.00,,---,0.00,0.00,VWS V14.01,2013-03-20 23:39:00,
2013-03-20 19:44:00,43.4,18.2,29.79,West,281,0.0,0.0,36,0.00,,---,0.00,0.00,VWS V14.01,2013-03-20 23:44:00,
2013-03-20 19:49:00,43.2,19.3,29.79,WNW,290,0.0,0.0,38,0.00,,---,0.00,0.00,VWS V14.01,2013-03-20 23:49:00,
2013-03-20 19:54:00,43.1,19.2,29.80,WNW,284,0.0,0.0,38,0.00,,---,0.00,0.00,VWS V14.01,2013-03-20 23:54:00,
2013-03-20 19:59:00,42.8,18.4,29.80,WSW,248,0.0,0.0,37,0.00,,---,0.00,0.00,VWS V14.01,2013-03-20 23:59:00,
2013-03-20 20:04:00,42.9,19.7,29.80,West,270,0.0,0.0,39,0.00,,---,0.00,0.00,VWS V14.01,2013-03-21 00:04:00,
2013-03-20 20:09:00,42.8,17.7,29.80,WNW,288,0.0,0.0,36,0.00,,---,0.00,0.00,VWS V14.01,2013-03-21 00:09:00,
2013-03-20 20:14:00,42.7,18.3,29.80,WNW,290,0.0,0.0,37,0.00,,---,0.00,0.00,VWS V14.01,2013-03-21 00:14:00,
2013-03-20 20:19:00,42.0,17.6,29.80,NW,320,0.0,0.0,37,0.00,,---,0.00,0.00,VWS V14.01,2013-03-21 00:19:00,
2013-03-20 20:24:00,42.1,18.3,29.80,WNW,284,0.0,0.0,38,0.00,,---,0.00,0.00,VWS V14.01,2013-03-21 00:24:00,
2013-03-20 20:29:00,42.2,17.8,29.80,WNW,289,0.0,0.0,37,0.00,,---,0.00,0.00,VWS V14.01,2013-03-21 00:29:00,
2013-03-20 20:34:00,42.5,18.1,29.80,WNW,294,0.0,0.0,37,0.00,,---,0.00,0.00,VWS V14.01,2013-03-21 00:34:00,
2013-03-20 20:39:00,42.5,18.7,29.80,WNW,283,0.0,0.0,38,0.00,,---,0.00,0.00,VWS V14.01,2013-03-21 00:39:00,
2013-03-20 20:44:00,42.5,18.1,29.81,WNW,296,0.0,0.0,37,0.00,,---,0.00,0.00,VWS V14.01,2013-03-21 00:44:00,
2013-03-20 20:49:00,43.1,20.4,29.81,WNW,296,0.0,0.0,40,0.00,,---,0.00,0.00,VWS V14.01,2013-03-21 00:49:00,
2013-03-20 20:54:00,42.6,20.0,29.81,NW,309,0.0,0.0,40,0.00,,---,0.00,0.00,VWS V14.01,2013-03-21 00:54:00,
2013-03-20 20:59:00,43.0,21.5,29.81,NW,310,0.0,0.0,42,0.00,,---,0.00,0.00,VWS V14.01,2013-03-21 00:59:00,
2013-03-20 21:04:00,43.6,22.0,29.81,NW,312,0.0,0.0,42,0.00,,---,0.00,0.00,VWS V14.01,2013-03-21 01:04:00,
2013-03-20 21:09:00,44.2,21.4,29.81,NW,312,0.0,0.0,40,0.00,,---,0.00,0.00,VWS V14.01,2013-03-21 01:09:00,
2013-03-20 21:14:00,44.0,22.4,29.81,NW,312,0.0,0.0,42,0.00,,---,0.00,0.00,VWS V14.01,2013-03-21 01:14:00,
2013-03-20 21:19:00,44.3,22.1,29.81,NW,312,0.0,0.0,41,0.00,,---,0.00,0.00,VWS V14.01,2013-03-21 01:19:00,
2013-03-20 21:24:00,42.3,17.9,29.81,NW,312,0.0,0.0,37,0.00,,---,0.00,0.00,VWS V14.01,2013-03-21 01:24:00,
2013-03-20 21:29:00,40.8,18.4,29.81,NW,312,0.0,0.0,40,0.00,,---,0.00,0.00,VWS V14.01,2013-03-21 01:29:00,
2013-03-20 21:34:00,40.1,18.9,29.81,NW,312,0.0,0.0,42,0.00,,---,0.00,0.00,VWS V14.01,2013-03-21 01:34:00,
2013-03-20 21:39:00,41.4,20.0,29.81,NNE,29,0.0,0.0,42,0.00,,---,0.00,0.00,VWS V14.01,2013-03-21 01:39:00,
2013-03-20 21:44:00,40.9,21.2,29.81,NNE,16,0.0,0.0,45,0.00,,---,0.00,0.00,VWS V14.01,2013-03-21 01:44:00,
2013-03-20 21:49:00,40.8,22.1,29.81,NNE,15,0.0,0.0,47,0.00,,---,0.00,0.00,VWS V14.01,2013-03-21 01:49:00,
2013-03-20 21:54:00,41.6,22.9,29.82,NNE,15,0.0,0.0,47,0.00,,---,0.00,0.00,VWS V14.01,2013-03-21 01:54:00,
2013-03-20 21:59:00,41.9,23.7,29.82,NNE,15,0.0,0.0,48,0.00,,---,0.00,0.00,VWS V14.01,2013-03-21 01:59:00,
2013-03-20 22:04:00,42.8,23.5,29.82,NNE,15,0.0,0.0,46,0.00,,---,0.00,0.00,VWS V14.01,2013-03-21 02:04:00,
2013-03-20 22:09:00,41.3,21.0,29.82,NNE,15,0.0,0.0,44,0.00,,---,0.00,0.00,VWS V14.01,2013-03-21 02:09:00,
2013-03-20 22:14:00,39.7,20.6,29.82,NNE,17,0.0,0.0,46,0.00,,---,0.00,0.00,VWS V14.01,2013-03-21 02:14:00,
2013-03-20 22:19:00,38.9,20.4,29.82,SE,134,0.0,0.0,47,0.00,,---,0.00,0.00,VWS V14.01,2013-03-21 02:19:00,
2013-03-20 22:24:00,38.9,20.9,29.82,South,178,0.0,0.0,48,0.00,,---,0.00,0.00,VWS V14.01,2013-03-21 02:24:00,
2013-03-20 22:29:00,39.4,22.3,29.83,SW,222,0.0,0.0,50,0.00,,---,0.00,0.00,VWS V14.01,2013-03-21 02:29:00,
2013-03-20 22:34:00,40.2,23.5,29.83,SW,222,0.0,0.0,51,0.00,,---,0.00,0.00,VWS V14.01,2013-03-21 02:34:00,
2013-03-20 22:39:00,41.4,22.7,29.82,NW,311,0.0,0.0,47,0.00,,---,0.00,0.00,VWS V14.01,2013-03-21 02:39:00,
2013-03-20 22:44:00,40.7,21.5,29.82,NW,312,0.0,0.0,46,0.00,,---,0.00,0.00,VWS V14.01,2013-03-21 02:44:00,
2013-03-20 22:49:00,40.3,20.1,29.82,NW,311,0.0,0.0,44,0.00,,---,0.00,0.00,VWS V14.01,2013-03-21 02:49:00,
2013-03-20 22:54:00,40.0,19.9,29.82,WNW,302,0.0,0.0,44,0.00,,---,0.00,0.00,VWS V14.01,2013-03-21 02:54:00,
2013-03-20 22:59:00,40.2,20.6,29.83,WNW,290,0.0,0.0,45,0.00,,---,0.00,0.00,VWS V14.01,2013-03-21 02:59:00,
2013-03-20 23:04:00,39.9,20.3,29.83,WNW,288,0.0,0.0,45,0.00,,---,0.00,0.00,VWS V14.01,2013-03-21 03:04:00,
2013-03-20 23:09:00,39.6,20.5,29.83,NW,320,0.0,0.0,46,0.00,,---,0.00,0.00,VWS V14.01,2013-03-21 03:09:00,
2013-03-20 23:14:00,39.5,21.0,29.83,North,360,0.0,0.0,47,0.00,,---,0.00,0.00,VWS V14.01,2013-03-21 03:14:00,
2013-03-20 23:19:00,39.5,21.5,29.83,NNW,340,0.0,0.0,48,0.00,,---,0.00,0.00,VWS V14.01,2013-03-21 03:19:00,
2013-03-20 23:24:00,39.3,21.8,29.83,NNW,333,0.0,0.0,49,0.00,,---,0.00,0.00,VWS V14.01,2013-03-21 03:24:00,
2013-03-20 23:29:00,39.9,21.8,29.83,North,355,0.0,0.0,48,0.00,,---,0.00,0.00,VWS V14.01,2013-03-21 03:29:00,
2013-03-20 23:34:00,39.5,21.5,29.83,NNW,330,0.0,0.0,48,0.00,,---,0.00,0.00,VWS V14.01,2013-03-21 03:34:00,
2013-03-20 23:39:00,38.9,21.4,29.83,NW,311,0.0,0.0,49,0.00,,---,0.00,0.00,VWS V14.01,2013-03-21 03:39:00,
2013-03-20 23:44:00,39.1,21.6,29.84,NW,311,0.0,0.0,49,0.00,,---,0.00,0.00,VWS V14.01,2013-03-21 03:44:00,
2013-03-20 23:49:00,39.2,21.7,29.84,WNW,300,0.0,0.0,49,0.00,,---,0.00,0.00,VWS V14.01,2013-03-21 03:49:00,
2013-03-20 23:54:00,39.1,21.6,29.84,NW,324,0.0,0.0,49,0.00,,---,0.00,0.00,VWS V14.01,2013-03-21 03:54:00,
2013-03-20 23:59:00,40.3,22.7,29.84,NW,306,0.0,0.0,49,0.00,,---,0.00,0.00,VWS V14.01,2013-03-21 03:59:00,